SCP
0 0 0 0 0 0 0 0 0 0 0 0 0 0 0 0 0 0 0 0 0 0 0 0 0 0 0 0 0 0 0 0 0 0 0 0 0 0 0 0 0 0 0 0 0 0 0 0 0
0 0 0 0 0 0 0 0 0 0 0 0 0 0 0 0 0 0 0 0 0 0 0 0 0 0 0 0 0 0 0 0 0 0 0 0 0 0 0 0 0 0 0 0 0 0 0 0 0
0 0 0 0 0 0 0 0 0 0 0 0 0 0 0 0 0 0 0 0 0 0 0 0 0 0 0 0 0 0 0 0 0 0 0 0 0 0 0 0 0 0 0 0 0 0 0 0 0
0 0 0 0 0 0 0 0 0 0 0 0 0 0 0 0 0 0 0 0 0 0 0 0 0 0 0 0 0 0 0 0 0 0 0 0 0 0 0 0 0 0 0 0 0 0 0 0 0
0 0 0 0 0 0 0 0 0 0 0 0 0 0 0 0 0 0 0 0 0 0 0 0 0 0 0 0 0 0 0 0 0 0 0 0 0 0 0 0 0 0 0 0 0 0 0 0 0
0 0 0 0 0 0 0 0 0 0 0 0 0 0 0 0 0 1 1 1 1 1 0 0 0 0 0 0 0 0 0 0 0 0 0 0 0 0 0 0 0 0 0 0 0 0 0 0 0
0 0 0 0 0 0 0 0 0 0 0 0 0 0 0 0 0 1 1 1 1 1 1 0 0 0 0 0 0 0 0 0 0 0 0 0 0 0 0 0 0 0 0 0 0 0 0 0 0
0 0 0 0 0 0 0 0 0 0 0 0 0 0 0 0 1 1 1 1 1 1 1 0 0 0 0 0 0 0 0 0 0 0 0 0 0 0 -0 -0 0 0 0 0 0 0 0 0 0
0 0 0 0 0 0 0 0 0 0 0 0 0 0 1 1 1 1 1 1 1 1 0 0 0 0 0 0 0 0 0 0 0 0 0 0 0 0 -0 -0 0 0 0 0 0 0 0 0 0
0 0 0 0 0 0 0 0 0 0 0 0 0 1 1 1 1 1 1 1 1 1 1 0 0 0 0 0 0 0 0 0 0 0 0 0 0 0 -0 -0 -0 0 0 0 0 0 0 0 0
0 0 0 0 0 0 0 0 0 0 0 0 1 1 1 1 1 1 1 1 1 1 1 0 0 0 0 0 0 0 0 0 0 0 0 0 0 0 -0 -0 -0 0 0 0 0 0 0 0 0
0 0 0 0 0 0 0 0 0 0 0 0 1 1 1 1 1 1 1 1 1 1 1 1 0 0 0 0 0 0 0 0 0 0 0 0 0 0 -0 -0 -0 -0 0 0 0 0 0 0 0
0 0 0 0 0 0 0 0 0 0 0 1 1 1 1 1 1 1 1 1 1 1 1 1 1 0 0 0 0 0 0 0 0 0 0 0 0 0 -0 -0 -0 -0 -0 0 0 0 0 0 0
0 0 0 0 0 0 0 0 0 0 0 1 1 1 1 1 1 1 1 1 1 1 1 1 1 0 0 0 0 0 0 0 0 0 0 0 0 0 -0 -0 -0 -0 -0 -0 -0 0 0 0 0
0 0 0 0 0 0 0 0 0 0 0 1 1 1 1 1 1 1 1 1 0 0 0 1 0 0 0 0 0 0 0 0 0 0 0 0 0 0 -0 -0 -0 -0 0 0 0 0 0 0 0
0 0 0 0 0 0 0 0 0 0 1 1 1 1 1 1 1 1 1 1 0 0 0 0 0 0 0 0 0 0 0 0 0 0 0 0 0 0 0 0 -0 0 0 0 0 0 0 0 0
0 0 0 0 0 0 0 0 0 0 1 1 1 1 1 1 1 1 1 1 1 0 0 0 0 0 0 0 0 0 0 0 0 0 0 0 0 0 0 0 0 0 0 0 0 0 0 0 0
0 0 0 0 0 0 0 0 0 0 0 1 1 1 1 1 1 1 1 1 1 1 1 0 0 0 0 0 0 0 0 0 0 0 0 0 0 0 0 0 0 0 0 0 0 0 0 0 0
0 0 0 0 0 0 0 0 0 0 0 0 1 1 1 1 1 1 1 1 1 1 1 0 0 0 0 0 0 0 0 0 0 0 0 0 0 0 0 0 0 0 0 0 0 0 0 0 0
0 0 0 0 0 0 0 0 0 0 0 0 0 1 1 1 1 1 1 1 1 1 1 1 0 0 0 0 0 0 0 0 0 0 0 0 0 0 0 0 0 0 0 0 0 0 0 0 0
0 0 0 0 0 0 0 0 0 0 0 0 0 1 1 1 1 1 1 1 1 1 1 0 0 0 0 0 0 0 0 0 0 0 0 0 0 0 0 0 0 0 0 0 0 0 0 0 0
0 0 0 0 0 0 0 0 0 0 0 0 0 1 1 1 1 1 1 1 1 1 0 0 0 0 0 0 0 0 0 0 0 0 0 0 0 0 0 0 0 0 0 0 0 0 0 0 0
0 0 0 0 0 0 0 0 0 0 0 0 0 0 1 1 1 1 1 1 1 0 0 0 0 0 0 0 0 0 0 0 0 0 0 0 0 0 0 0 0 0 0 0 0 0 0 0 0
0 0 0 0 0 0 0 0 0 0 0 0 0 0 1 1 1 1 1 0 0 0 0 0 0 0 0 0 0 0 0 0 0 0 0 0 0 0 0 0 0 0 0 0 0 0 0 0 0
0 0 0 0 0 0 0 0 0 0 0 0 0 0 0 1 0 0 0 0 0 0 0 0 0 0 0 0 0 0 0 0 0 0 0 0 0 0 0 0 0 0 0 0 0 0 0 0 0
0 0 0 0 0 0 0 0 0 0 0 0 0 0 0 0 0 0 0 0 0 0 0 0 0 0 0 0 0 0 0 0 0 0 0 0 0 0 0 0 0 0 0 0 0 0 0 0 0
0 0 0 0 0 0 0 0 0 0 0 0 0 0 0 0 0 0 0 0 0 0 0 0 0 0 0 0 0 0 0 0 0 0 0 0 0 0 0 0 0 0 0 0 0 0 0 0 0
0 0 0 0 0 0 0 0 0 0 0 0 0 0 0 0 0 0 0 0 0 0 0 0 0 0 0 0 0 0 0 0 0 0 0 0 0 0 0 0 0 0 0 0 0 0 0 0 0
0 0 0 0 0 0 0 0 0 0 0 0 0 0 0 0 0 0 0 0 0 0 0 0 0 0 0 0 0 0 0 0 0 0 0 0 0 0 0 0 0 0 0 0 0 0 0 0 0
0 0 0 0 0 0 0 0 0 0 0 0 0 0 0 0 0 0 0 0 0 0 0 0 0 0 0 0 0 0 0 0 0 0 0 0 0 0 0 0 0 0 0 0 0 0 0 0 0
Wind_Speed
3 3 3 1 5 6 3 3 1 2 2 1 4 4 5 4 3 3 3 10 14 12 10 13 16 16 16 15 15 15 15 15 15 14 14 13 13 12 12 11 11 11 11 11 11 12 12 12 12
2 3 1 3 6 4 3 3 2 2 2 3 4 4 5 4 4 7 6 9 14 13 9 11 17 16 16 15 15 15 15 14 14 14 13 13 12 12 12 11 11 11 11 11 11 12 12 12 12
2 2 3 5 4 2 2 2 0 1 2 2 3 4 4 3 6 6 7 13 13 11 9 12 18 17 16 15 14 14 14 14 13 13 12 12 11 11 11 11 11 11 11 11 11 12 12 12 12
2 3 4 6 2 2 3 3 2 1 2 3 4 5 4 3 5 7 14 14 13 10 8 12 18 17 16 15 14 14 14 13 13 12 11 11 11 11 11 11 11 11 11 11 11 12 12 12 12
3 4 6 4 3 3 2 2 2 1 1 2 4 5 3 4 9 15 14 14 13 10 8 10 17 17 16 15 14 14 13 13 12 12 11 11 11 10 10 10 10 11 11 11 11 11 11 11 11
4 5 6 2 5 3 1 2 2 2 2 2 4 5 3 4 11 14 13 11 11 11 8 9 16 16 16 15 14 14 13 13 12 11 11 11 10 10 10 10 10 10 11 11 11 11 11 10 10
4 4 3 1 3 3 1 2 3 3 2 2 4 6 3 5 8 11 11 10 9 9 8 7 8 11 15 15 14 13 13 12 11 11 10 10 10 10 10 9 10 10 10 10 10 10 10 9 9
4 5 3 1 1 3 1 1 2 3 2 3 4 7 6 7 10 11 11 9 9 7 6 6 6 6 6 8 13 13 12 12 11 10 10 10 10 9 9 8 9 10 10 10 10 10 9 8 8
4 6 1 2 2 3 1 1 1 2 4 2 2 3 7 16 15 13 12 9 9 8 6 6 6 5 5 5 9 10 11 11 9 8 10 8 4 4 5 6 8 9 9 9 9 9 8 8 7
5 3 4 4 4 2 2 2 3 3 2 2 4 7 15 17 15 15 15 14 13 11 8 6 6 6 5 5 4 3 3 4 4 3 4 4 3 3 4 4 7 8 8 8 8 8 8 6 3
3 4 4 4 3 3 2 3 4 5 3 6 8 14 18 16 14 14 13 13 12 11 10 7 6 6 5 4 4 2 2 2 3 4 4 4 3 2 2 1 2 3 5 3 5 5 4 3 3
2 4 3 4 2 1 3 4 3 5 6 6 11 18 19 17 15 14 14 12 10 10 10 8 7 5 5 4 4 3 2 2 2 3 4 3 2 2 2 1 2 2 2 3 3 2 3 3 3
1 3 3 4 4 2 2 3 3 3 1 8 13 15 16 15 12 9 9 10 10 11 10 9 8 7 5 4 4 4 3 3 3 3 3 4 3 3 2 2 1 2 2 2 2 2 3 3 2
2 4 5 5 2 1 4 1 2 2 5 10 13 13 13 13 11 9 9 10 11 11 10 9 9 8 6 4 4 4 3 3 3 3 4 4 3 3 3 2 2 2 2 2 2 2 2 2 1
2 4 7 3 2 1 4 2 2 3 8 10 10 11 11 9 9 11 11 10 11 10 10 10 10 8 7 6 5 4 4 4 3 3 4 4 4 4 3 3 2 2 2 2 2 2 2 2 1
4 5 4 6 3 1 4 3 4 5 9 8 9 9 8 8 9 8 8 8 8 9 9 10 10 9 8 6 5 3 4 4 3 3 3 5 5 5 4 3 3 2 2 2 2 2 2 1 1
6 3 3 7 3 2 2 4 3 5 8 8 8 8 8 7 7 7 8 9 9 9 10 10 9 10 9 7 5 4 3 4 3 3 3 4 5 5 4 3 3 3 2 2 2 2 2 1 1
1 2 3 6 5 2 0 4 3 4 6 7 7 6 6 8 8 7 7 8 8 8 9 9 8 8 7 5 3 2 3 3 3 3 4 5 4 5 5 3 4 4 3 2 2 2 2 1 2
1 1 4 6 4 1 2 3 3 3 4 5 6 6 7 7 5 5 7 8 8 8 9 9 8 8 7 5 4 4 4 3 3 3 4 5 5 6 5 4 4 4 4 4 4 3 2 1 2
1 2 4 5 3 1 1 3 2 2 5 6 7 7 8 6 4 5 7 8 9 9 9 9 9 9 8 6 5 3 3 3 3 3 4 5 6 6 6 5 4 4 3 4 4 3 2 2 2
3 4 4 3 4 4 3 5 3 2 1 2 4 5 6 8 8 7 7 7 7 8 10 10 10 9 8 7 4 3 2 1 2 3 3 4 5 6 5 6 5 5 4 4 5 4 5 3 1
4 5 5 2 1 3 2 3 6 2 3 4 6 6 7 7 6 6 7 7 8 8 7 7 7 8 7 8 7 7 6 5 5 4 4 3 5 5 6 6 6 5 4 4 5 5 3 4 3
6 0 2 1 2 2 3 1 8 3 4 6 6 7 7 7 7 6 6 7 6 6 6 6 6 6 6 7 8 7 6 5 3 3 4 4 3 5 6 6 5 5 5 5 5 5 4 4 4
3 5 6 6 5 2 2 1 7 5 6 5 5 6 7 7 7 6 4 4 4 5 5 5 6 5 6 7 7 7 7 6 5 5 5 4 3 3 4 5 5 5 5 5 5 5 6 4 4
4 6 5 6 5 4 3 2 10 8 6 6 7 8 7 7 7 7 6 6 6 6 5 5 6 5 5 6 7 7 7 7 7 6 6 5 3 3 5 5 5 5 5 5 5 5 5 5 5
5 9 8 5 4 5 3 4 9 6 5 4 4 6 6 7 7 7 7 7 6 6 6 6 6 5 5 5 5 5 5 4 4 5 5 5 4 4 5 5 5 5 5 5 5 4 5 4 5
7 4 7 8 3 0 5 7 9 3 3 1 3 5 6 7 7 7 7 6 6 6 6 6 6 5 4 5 4 3 4 4 5 5 4 4 3 4 5 5 5 5 5 5 5 4 5 5 5
6 10 6 7 6 2 4 5 6 6 4 2 3 5 6 6 6 6 6 6 6 5 5 4 5 5 4 4 4 4 4 4 4 4 4 4 4 4 4 5 5 5 5 5 5 4 4 5 4
5 5 6 5 6 7 3 8 8 8 7 7 7 6 7 7 7 7 6 6 6 5 5 4 4 4 4 4 4 4 4 4 4 4 4 3 3 4 5 5 5 5 5 5 5 5 5 5 4
5 8 9 7 5 5 5 10 6 7 6 6 6 6 6 6 6 6 6 6 5 5 5 4 4 4 4 4 4 4 3 3 3 3 3 3 3 3 4 4 4 4 5 5 6 6 5 5 5
Wind_Direction
219 161 140 107 56 48 23 334 349 37 50 75 117 115 122 120 156 152 121 136 133 139 144 144 140 136 131 126 124 122 121 120 120 121 123 124 125 127 128 128 129 127 122 119 118 116 114 114 115
164 159 129 64 71 52 333 320 22 34 113 104 90 85 85 75 79 108 128 141 138 139 140 144 143 139 134 130 127 125 123 123 123 124 124 125 126 127 127 127 129 128 126 124 121 117 114 115 116
189 171 88 68 76 143 257 284 149 62 79 75 82 64 75 102 122 132 144 141 133 135 137 149 145 142 138 134 131 129 127 126 125 125 126 125 125 126 126 127 127 126 127 126 123 119 117 117 118
121 57 53 63 48 231 220 231 177 107 28 52 92 72 65 71 134 135 138 139 134 133 139 151 147 145 142 139 137 134 131 129 128 128 128 127 126 127 126 126 126 125 125 125 122 119 118 117 117
66 73 55 36 323 271 232 208 171 150 57 58 91 90 56 24 109 128 137 140 139 137 143 152 150 148 146 144 141 138 136 134 133 132 131 131 129 127 125 125 125 125 125 123 122 119 119 119 120
56 62 68 7 318 310 246 167 149 138 115 98 102 99 62 103 126 137 139 140 142 142 142 149 153 152 150 148 146 143 141 138 137 135 133 132 130 129 128 126 125 125 125 125 123 121 121 121 122
91 81 96 315 310 314 255 140 144 149 148 147 126 108 111 139 139 135 133 133 135 137 137 142 150 154 154 152 150 148 145 143 141 139 136 133 132 131 130 129 128 126 125 125 124 123 122 121 124
114 93 61 334 287 285 240 107 120 136 146 111 117 140 166 163 138 128 125 129 134 135 138 138 139 143 147 152 155 152 150 149 147 145 142 140 138 135 132 128 129 129 129 129 125 123 121 121 126
83 70 7 247 227 270 171 111 80 105 108 102 100 144 147 136 135 134 135 140 149 152 146 142 140 137 135 142 158 155 154 154 150 151 148 133 101 101 117 133 134 134 134 131 127 124 119 114 123
83 109 237 227 211 232 217 165 157 114 115 110 80 94 126 139 147 153 158 162 166 167 162 153 148 144 142 153 142 132 137 137 126 118 118 106 102 110 121 143 139 137 134 130 125 123 110 95 91
135 199 250 264 229 224 217 174 147 139 194 195 166 148 148 152 160 166 169 170 172 167 166 162 156 150 147 141 136 126 120 121 122 125 121 117 107 98 87 80 104 106 109 92 99 95 90 96 99
192 253 254 276 291 216 196 156 151 185 219 179 156 153 156 164 171 174 173 173 170 168 171 164 158 151 150 143 142 140 141 140 142 143 138 132 128 126 123 105 93 81 84 92 88 95 101 101 111
250 286 288 274 299 237 154 154 162 232 200 123 134 152 165 171 174 173 169 168 169 174 172 169 161 158 154 150 158 157 158 161 157 153 157 155 154 158 153 142 127 114 108 112 111 113 112 107 114
282 288 296 292 299 201 144 149 127 235 132 129 144 163 173 176 173 165 167 174 177 178 176 169 165 166 160 166 170 163 169 169 168 173 175 169 164 164 164 161 158 152 141 139 135 133 126 119 118
316 339 338 338 355 33 108 24 227 183 134 140 156 167 176 180 175 181 184 181 179 179 176 173 171 167 169 177 183 174 177 175 184 189 183 180 176 174 172 173 178 177 154 143 123 115 115 130 133
31 32 346 311 348 15 108 254 252 155 149 158 167 172 178 185 187 188 183 175 175 172 175 177 178 173 177 181 183 177 181 184 192 188 185 189 185 176 171 178 187 171 149 142 136 126 121 125 134
27 14 320 311 333 25 104 247 260 158 161 169 176 180 180 182 193 188 180 175 176 176 176 178 179 178 181 180 178 179 180 188 190 185 186 192 187 178 174 183 182 165 154 153 163 136 140 151 154
297 323 314 299 305 10 340 256 266 180 175 181 182 183 182 191 202 184 177 173 174 175 174 179 177 174 172 167 163 169 184 193 184 189 193 187 184 180 174 182 179 167 160 164 157 141 126 136 147
176 261 287 278 292 345 279 265 267 199 183 190 193 191 192 204 191 161 167 170 169 172 173 177 173 172 167 165 175 180 196 195 198 202 197 187 182 180 175 182 175 173 177 177 162 140 135 126 123
205 287 288 300 341 35 328 310 307 208 205 206 200 196 194 189 170 168 166 168 174 177 177 176 180 180 181 181 178 176 174 186 199 205 199 189 184 183 186 180 180 178 171 165 166 155 142 142 149
241 211 233 261 342 20 28 338 323 307 254 231 215 199 189 188 187 183 177 174 172 178 183 186 185 183 183 176 154 141 129 131 178 209 208 199 189 186 184 184 180 178 176 183 185 175 161 162 171
259 227 207 222 47 321 30 302 295 297 293 242 223 202 194 190 184 182 180 180 183 187 183 180 179 178 178 172 173 176 184 192 201 197 198 195 192 188 189 183 181 179 180 186 193 183 170 156 173
217 153 127 101 137 28 16 146 287 325 274 255 230 207 195 188 179 184 187 186 181 174 176 175 173 178 177 180 183 185 195 199 189 178 180 189 192 195 194 188 182 182 186 191 191 179 178 173 174
158 69 52 47 67 31 300 185 278 253 234 252 230 207 191 178 168 169 168 159 161 161 166 167 176 186 183 184 188 193 194 190 179 180 184 190 189 194 195 189 186 186 188 193 195 190 188 188 183
109 88 32 6 17 260 286 233 254 257 246 236 224 203 188 172 166 162 166 169 171 169 169 169 177 188 186 189 196 199 198 191 189 186 188 187 188 195 202 193 190 192 196 196 188 186 192 190 188
169 139 154 185 213 275 320 248 260 273 286 261 202 179 170 169 170 169 171 172 173 173 173 174 182 188 186 190 194 194 193 189 190 185 184 191 197 201 197 195 196 198 195 196 188 189 197 192 195
139 168 154 126 144 307 291 291 302 299 342 27 148 158 171 175 175 168 164 168 171 176 182 182 179 179 186 191 184 187 192 190 189 183 182 190 197 196 194 196 196 199 196 194 186 196 200 188 196
140 141 108 120 142 218 288 282 257 270 257 226 192 185 180 173 168 166 166 168 170 174 179 173 169 176 178 177 180 188 189 187 184 178 186 194 198 195 190 195 195 196 196 192 187 191 192 182 190
114 111 109 113 144 151 216 265 231 227 222 211 210 197 184 181 173 170 171 168 159 155 160 162 163 165 168 171 171 170 176 176 172 172 183 191 196 195 198 196 192 193 193 187 182 187 184 184 188
164 164 146 148 189 165 169 261 266 237 229 210 209 199 184 178 170 165 160 156 156 160 163 166 166 163 164 161 157 163 160 161 168 174 182 183 191 198 196 185 183 193 192 185 183 187 185 185 189